User: anonymous   Login
Location: Abraham Lincoln Continuation High School
(33.9711°N, 117.3662°W)
Time: 12:59:57
(UTC+00:00)
Language:

Cosmos 1603 - Orbit

View from above orbital plane
View from above orbital plane
View from above satellite
View from above satellite

Ground track
Ground track

The orbit data is extracted from the following two-line orbital elements,

1 15333U 84106A   20330.72344134  .00000069  00000-0  60868-4 0  9997
2 15333  71.0253 338.9938 0017439  93.4549 266.8568 14.14101436866035
Epoch (UTC): 25 November 2020 17:21:45
Eccentricity: 0.0017439
inclination: 71.0253°
perigee height: 833 km
apogee height: 858 km
right ascension of ascending node: 338.9938°
argument of perigee: 93.4549°
revolutions per day: 14.14101436
mean anomaly at epoch: 266.8568°
orbit number at epoch: 86603

The dashed part of the orbit path shows where the satellite is in the earth's shadow,  

DLR